NOAA NWS Hourly Roundups by Site

Regional Weather Roundup for Indianapolis, IN

To Select Another Site Choose from List

Select Site:  

250
ASUS43 KIND 211410
RWRIN

WEATHER ROUNDUP FOR INDIANA
NATIONAL WEATHER SERVICE INDIANAPOLIS IN
1000 AM EDT FRI JUN 21 2024

NOTE: "FAIR" INDICATES FEW OR NO CLOUDS BELOW 12,000 FEET WITH NO
SIGNIFICANT WEATHER AND/OR OBSTRUCTIONS TO VISIBILITY.

* - STATION DOES NOT REPORT WEATHER SUCH AS PRECIPITATION OR FOG.

+ - STATION NOT QUALITY CONTROLLED BY THE NATIONAL WEATHER SERVICE.
    USE DATA WITH CAUTION...ESPECIALLY DEWPOINT AND RELATIVE
    HUMIDITY OBSERVATIONS.

INZ001>003-010>013-019-020-211500-
NORTHWEST INDIANA

CITY           SKY/WX    TMP DP  RH WIND       PRES   REMARKS
GARY /AIRPORT/ SUNNY     73  73 100 CALM      30.24F
KNOX *+        SUNNY     77  66  69 W5        30.25S
LA PORTE +     SUNNY     79  72  78 W3        30.24F
MICHIGAN CITY+ SUNNY     73  68  83 CALM      30.25F
MONTICELLO +   SUNNY     83  69  64 W6        30.25S
RENSSELAER +   SUNNY     81  70  69 SW5       30.26S
VALPARAISO     SUNNY     78  68  71 CALM      30.25S

$$

LMZ046-743>745-211500-
SOUTHERN LAKE MICHIGAN

STATION/POSITION TIME  TEMP    WIND        PRES    WAVE
                       AIR SEA DIR/SP/G            HT
                 (UTC) (F)     (DEG/KT/KT) (MB)    (FT)
BURNS HARBOR     1340   67     260/  1/  2 1024.7S
MICHIGAN CITY    1340   67     340/  3/  3 1023.0F
5NW MICH CITY    1340   67     180/  2/  4 1024.2R   2

$$

INZ004-005-014>016-021>024-211500-
NORTH CENTRAL INDIANA

CITY           SKY/WX    TMP DP  RH WIND       PRES   REMARKS
ELKHART        MOSUNNY   80  74  81 W5        30.24S
GOSHEN         MOSUNNY   81  70  69 SW7       30.24S
LOGANSPORT +   PTSUNNY   81  70  69 SW6       30.26S
PERU/GRISSOM   MOSUNNY   84  69  60 W7        30.23S
PLYMOUTH *+    MOSUNNY   81  70  69 VRB5      30.24S
ROCHESTER +    PTSUNNY   82  77  83 CALM      30.25S HX  91
SOUTH BEND     SUNNY     77  71  82 VRB5      30.25S
WARSAW +       MOSUNNY   83  69  63 W5        30.25S

$$

INZ006>009-017-018-025>027-211500-
NORTHEAST INDIANA

CITY           SKY/WX    TMP DP  RH WIND       PRES   REMARKS
AUBURN +       SUNNY     82  72  69 MISG      30.25S
FORT WAYNE     MOSUNNY   86  69  56 W7        30.25F HX  90
HUNTINGTON +   SUNNY     83  71  66 SW3       30.24F
KENDALLVILLE + MOSUNNY   83  73  73 W6        30.26S

$$

INZ028-029-035-036-043>045-051>053-211500-
WEST CENTRAL INDIANA

CITY           SKY/WX    TMP DP  RH WIND       PRES   REMARKS
CRAWFORDSVL +  SUNNY     81  60  49 W6        30.27S
GREENCASTLE +  SUNNY     83  68  61 NW6       30.27F
LAFAYETTE      SUNNY     83  69  62 SW3       30.24F
TERRE HAUTE    SUNNY     85  69  58 NW5       30.26F

$$

INZ030>032-037>040-046>048-054>057-064-065-211500-
CENTRAL INDIANA

CITY           SKY/WX    TMP DP  RH WIND       PRES   REMARKS
ANDERSON +     SUNNY     81  66  61 W5        30.27S
COLUMBUS       SUNNY     82  68  61 CALM      30.26F
FISHERS *+     SUNNY     84  69  60 VRB5      30.27S
GREENWOOD *+     N/A     85  64  49 W3          N/A
INDIANAPOLIS   MOSUNNY   85  66  53 W8        30.26S
-EAGLE CREEK   SUNNY     85  67  54 NW6       30.25F
KOKOMO +       SUNNY     86  70  58 W7        30.26F HX  90
MARION +       SUNNY     82  70  66 CALM      30.26F
SHELBYVILLE    SUNNY     86  68  54 W6        30.25F

$$

INZ033-034-041-042-049-050-058-059-211500-
EAST CENTRAL INDIANA

CITY           SKY/WX    TMP DP  RH WIND       PRES   REMARKS
MUNCIE         SUNNY     85  67  54 NW6       30.26S
PORTLAND +     SUNNY     84  64  51 W5        30.25S
RICHMOND +     SUNNY     81  70  69 W7        30.28F

$$

INZ060-061-067>069-081>083-085>088-211500-
SOUTHWEST INDIANA

CITY           SKY/WX    TMP DP  RH WIND       PRES   REMARKS
EVANSVILLE     SUNNY     86  67  52 N3        30.27R
HUNTINGBURG +  SUNNY     83  71  67 N5        30.28S
WASHINGTON +   SUNNY     83  64  51 NW3       30.27S

$$

INZ062-063-066-070>080-084-089>092-211500-
SOUTH CENTRAL AND SOUTHEAST INDIANA

CITY           SKY/WX    TMP DP  RH WIND       PRES   REMARKS
BATESVILLE +   SUNNY     84  79  84 CALM      30.27F HX  96
BLOOMINGTON    SUNNY     83  68  60 VRB3      30.27F
FRENCH LICK *+ SUNNY     81  64  57 NW3       30.28S
JEFFERSONVL +  SUNNY     84  72  65 CALM      30.25S
MADISON *+     SUNNY     82  70  65 CALM      30.29F

$$




 

View Past Reports for Indianapolis, IN.

Products Courtesy of NOAA-NWS
NWS Information Parsing Script by Ken True at Saratoga Weather - Script by SE Lincoln Weather.